Time,TemperatureF,DewpointF,PressureIn,WindDirection,WindDirectionDegrees,WindSpeedMPH,WindSpeedGustMPH,Humidity,HourlyPrecipIn,Conditions,Clouds,dailyrainin,SoftwareType,DateUTC
2013-01-20 00:04:00,47.0,24.0,-100.00,SSW,200,21.0,29.0,40,0.00,,,-99.99,,2013-01-20 05:04:00,
2013-01-20 00:12:00,47.0,24.0,-100.00,SSW,195,17.0,27.0,41,0.00,,,-99.99,,2013-01-20 05:12:00,
2013-01-20 00:22:00,47.0,24.0,-100.00,SSW,195,18.0,29.0,41,0.00,,,-99.99,,2013-01-20 05:22:00,
2013-01-20 00:33:00,47.0,25.0,-100.00,SW,215,24.0,34.0,41,0.00,,,-99.99,,2013-01-20 05:33:00,
2013-01-20 00:42:00,47.0,25.0,-100.00,South,190,18.0,27.0,42,0.00,,,-99.99,,2013-01-20 05:42:00,
2013-01-20 00:53:00,47.0,25.0,-100.00,SSW,210,19.0,30.0,42,0.00,,,-99.99,,2013-01-20 05:53:00,
2013-01-20 01:02:00,46.0,26.0,-100.00,SSW,200,16.0,31.0,44,0.00,,,-99.99,,2013-01-20 06:02:00,
2013-01-20 01:12:00,47.0,26.0,-100.00,SSW,200,21.0,35.0,44,0.00,,,-99.99,,2013-01-20 06:12:00,
2013-01-20 01:22:00,47.0,26.0,-100.00,SSW,210,21.0,32.0,44,0.00,,,-99.99,,2013-01-20 06:22:00,
2013-01-20 01:33:00,47.0,27.0,-100.00,SSW,200,24.0,34.0,45,0.00,,,-99.99,,2013-01-20 06:33:00,
2013-01-20 01:42:00,46.0,27.0,-100.00,SW,215,21.0,29.0,46,0.00,,,-99.99,,2013-01-20 06:42:00,
2013-01-20 01:52:00,46.0,27.0,-100.00,SW,215,15.0,32.0,47,0.00,,,-99.99,,2013-01-20 06:52:00,
2013-01-20 02:02:00,46.0,27.0,-100.00,SW,215,13.0,27.0,48,0.00,,,-99.99,,2013-01-20 07:02:00,
2013-01-20 02:12:00,45.0,28.0,-100.00,SSW,205,14.0,25.0,49,0.00,,,-99.99,,2013-01-20 07:12:00,
2013-01-20 02:22:00,46.0,28.0,-100.00,SW,215,19.0,34.0,49,0.00,,,-99.99,,2013-01-20 07:22:00,
2013-01-20 02:32:00,45.0,28.0,-100.00,SW,215,21.0,29.0,49,0.00,,,-99.99,,2013-01-20 07:32:00,
2013-01-20 02:42:00,45.0,28.0,-100.00,SSW,210,19.0,32.0,51,0.00,,,-99.99,,2013-01-20 07:42:00,
2013-01-20 02:52:00,45.0,28.0,-100.00,SSW,210,19.0,25.0,51,0.00,,,-99.99,,2013-01-20 07:52:00,
2013-01-20 03:02:00,45.0,28.0,-100.00,SW,215,18.0,31.0,52,0.00,,,-99.99,,2013-01-20 08:02:00,
2013-01-20 03:12:00,45.0,29.0,-100.00,SW,220,17.0,33.0,52,0.00,,,-99.99,,2013-01-20 08:12:00,
2013-01-20 03:22:00,44.0,29.0,-100.00,SW,220,17.0,27.0,53,0.00,,,-99.99,,2013-01-20 08:22:00,
2013-01-20 03:32:00,44.0,29.0,-100.00,SSW,210,16.0,24.0,53,0.00,,,-99.99,,2013-01-20 08:32:00,
2013-01-20 03:42:00,45.0,29.0,-100.00,SSW,205,18.0,29.0,53,0.00,,,-99.99,,2013-01-20 08:42:00,
2013-01-20 03:52:00,45.0,29.0,-100.00,SW,215,19.0,30.0,54,0.00,,,-99.99,,2013-01-20 08:52:00,
2013-01-20 04:02:00,45.0,29.0,-100.00,SW,220,19.0,35.0,54,0.00,,,-99.99,,2013-01-20 09:02:00,
2013-01-20 04:12:00,45.0,29.0,-100.00,SW,235,19.0,29.0,54,0.00,,,-99.99,,2013-01-20 09:12:00,
2013-01-20 04:22:00,44.0,29.0,-100.00,SW,225,19.0,32.0,54,0.00,,,-99.99,,2013-01-20 09:22:00,
2013-01-20 04:33:00,45.0,29.0,-100.00,SW,230,22.0,32.0,53,0.00,,,-99.99,,2013-01-20 09:33:00,
2013-01-20 04:42:00,44.0,26.0,-100.00,SW,235,25.0,38.0,47,0.00,,,-99.99,,2013-01-20 09:42:00,
2013-01-20 04:52:00,44.0,18.0,-100.00,SW,220,24.0,46.0,35,0.00,,,-99.99,,2013-01-20 09:52:00,
2013-01-20 05:02:00,43.0,18.0,-100.00,WSW,250,22.0,47.0,35,0.00,,,-99.99,,2013-01-20 10:02:00,
2013-01-20 05:12:00,42.0,19.0,-100.00,SW,230,30.0,48.0,39,0.00,,,-99.99,,2013-01-20 10:12:00,
2013-01-20 05:22:00,42.0,20.0,-100.00,SW,225,23.0,37.0,40,0.00,,,-99.99,,2013-01-20 10:22:00,
2013-01-20 05:32:00,41.0,20.0,-100.00,WSW,255,14.0,41.0,42,0.00,,,-99.99,,2013-01-20 10:32:00,
2013-01-20 05:42:00,40.0,19.0,-100.00,West,260,21.0,27.0,41,0.00,,,-99.99,,2013-01-20 10:42:00,
2013-01-20 05:52:00,40.0,18.0,-100.00,WSW,255,22.0,39.0,41,0.00,,,-99.99,,2013-01-20 10:52:00,
2013-01-20 06:03:00,39.0,18.0,-100.00,SW,235,26.0,35.0,41,0.00,,,-99.99,,2013-01-20 11:03:00,
2013-01-20 06:12:00,38.0,18.0,-100.00,SW,230,19.0,40.0,43,0.00,,,-99.99,,2013-01-20 11:12:00,
2013-01-20 06:22:00,38.0,18.0,-100.00,SW,230,22.0,33.0,43,0.00,,,-99.99,,2013-01-20 11:22:00,
2013-01-20 06:33:00,38.0,18.0,-100.00,WSW,240,24.0,35.0,45,0.00,,,-99.99,,2013-01-20 11:33:00,
2013-01-20 06:43:00,37.0,18.0,-100.00,SW,230,17.0,29.0,45,0.00,,,-99.99,,2013-01-20 11:43:00,
2013-01-20 06:53:00,37.0,19.0,-100.00,West,270,15.0,22.0,48,0.00,,,-99.99,,2013-01-20 11:53:00,
2013-01-20 07:03:00,35.0,18.0,-100.00,West,270,20.0,29.0,49,0.00,,,-99.99,,2013-01-20 12:03:00,
2013-01-20 07:12:00,33.0,16.0,-100.00,WSW,240,19.0,37.0,48,0.00,,,-99.99,,2013-01-20 12:12:00,
2013-01-20 07:23:00,33.0,16.0,-100.00,West,260,16.0,32.0,49,0.00,,,-99.99,,2013-01-20 12:23:00,
2013-01-20 07:33:00,32.0,16.0,-100.00,West,265,11.0,26.0,50,0.00,,,-99.99,,2013-01-20 12:33:00,
2013-01-20 07:43:00,32.0,16.0,-100.00,West,270,10.0,20.0,51,0.00,,,-99.99,,2013-01-20 12:43:00,
2013-01-20 07:52:00,31.0,15.0,-100.00,West,270,7.0,17.0,52,0.00,,,-99.99,,2013-01-20 12:52:00,
2013-01-20 08:03:00,30.0,14.0,-100.00,WSW,255,15.0,24.0,50,0.00,,,-99.99,,2013-01-20 13:03:00,
2013-01-20 08:12:00,29.0,14.0,-100.00,West,265,8.0,23.0,51,0.00,,,-99.99,,2013-01-20 13:12:00,
2013-01-20 08:23:00,29.0,13.0,-100.00,West,265,12.0,19.0,50,0.00,,,-99.99,,2013-01-20 13:23:00,
2013-01-20 08:33:00,29.0,13.0,-100.00,West,270,10.0,22.0,51,0.00,,,-99.99,,2013-01-20 13:33:00,
2013-01-20 08:43:00,29.0,13.0,-100.00,West,260,12.0,21.0,49,0.00,,,-99.99,,2013-01-20 13:43:00,
2013-01-20 08:52:00,29.0,13.0,-100.00,WSW,250,13.0,23.0,48,0.00,,,-99.99,,2013-01-20 13:52:00,
2013-01-20 09:02:00,29.0,12.0,-100.00,WSW,240,17.0,26.0,49,0.00,,,-99.99,,2013-01-20 14:02:00,
2013-01-20 09:12:00,29.0,12.0,-100.00,WSW,245,20.0,28.0,48,0.00,,,-99.99,,2013-01-20 14:12:00,
2013-01-20 09:23:00,28.0,12.0,-100.00,WSW,240,16.0,25.0,50,0.00,,,-99.99,,2013-01-20 14:23:00,
2013-01-20 09:33:00,28.0,13.0,-100.00,WSW,240,12.0,24.0,52,0.00,,,-99.99,,2013-01-20 14:33:00,
2013-01-20 09:43:00,28.0,13.0,-100.00,WSW,250,15.0,25.0,51,0.00,,,-99.99,,2013-01-20 14:43:00,
2013-01-20 09:53:00,28.0,13.0,-100.00,WSW,250,15.0,25.0,53,0.00,,,-99.99,,2013-01-20 14:53:00,
2013-01-20 10:03:00,28.0,15.0,-100.00,West,260,7.0,25.0,56,0.00,,,-99.99,,2013-01-20 15:03:00,
2013-01-20 10:12:00,26.0,17.0,-100.00,West,270,10.0,22.0,66,0.00,,,-99.99,,2013-01-20 15:12:00,
2013-01-20 10:23:00,26.0,17.0,-100.00,West,265,9.0,21.0,66,0.00,,,-99.99,,2013-01-20 15:23:00,
2013-01-20 10:33:00,26.0,16.0,-100.00,West,280,7.0,16.0,65,0.00,,,-99.99,,2013-01-20 15:33:00,
2013-01-20 10:42:00,26.0,14.0,-100.00,West,275,13.0,21.0,61,0.00,,,-99.99,,2013-01-20 15:42:00,
2013-01-20 10:53:00,25.0,14.0,-100.00,WNW,290,11.0,22.0,62,0.00,,,-99.99,,2013-01-20 15:53:00,
2013-01-20 11:03:00,24.0,14.0,-100.00,West,270,14.0,23.0,64,0.00,,,-99.99,,2013-01-20 16:03:00,
2013-01-20 11:12:00,24.0,15.0,-100.00,West,280,12.0,21.0,68,0.55,,,-99.99,,2013-01-20 16:12:00,
2013-01-20 11:23:00,24.0,15.0,-100.00,West,280,12.0,21.0,67,0.00,,,-99.99,,2013-01-20 16:23:00,
2013-01-20 11:33:00,24.0,15.0,-100.00,WSW,255,11.0,21.0,66,0.00,,,-99.99,,2013-01-20 16:33:00,
2013-01-20 11:43:00,23.0,16.0,-100.00,West,265,15.0,21.0,74,1.69,,,-99.99,,2013-01-20 16:43:00,
2013-01-20 11:52:00,23.0,17.0,-100.00,West,280,15.0,22.0,76,0.55,,,-99.99,,2013-01-20 16:52:00,
2013-01-20 12:03:00,23.0,16.0,-100.00,WSW,255,12.0,19.0,72,0.00,,,-99.99,,2013-01-20 17:03:00,
2013-01-20 12:13:00,24.0,15.0,-100.00,WSW,255,12.0,22.0,70,0.00,,,-99.99,,2013-01-20 17:13:00,
2013-01-20 12:22:00,24.0,15.0,-100.00,West,270,9.0,13.0,67,0.00,,,-99.99,,2013-01-20 17:22:00,
2013-01-20 12:33:00,24.0,12.0,-100.00,West,260,17.0,24.0,58,0.00,,,-99.99,,2013-01-20 17:33:00,
2013-01-20 12:42:00,24.0,10.0,-100.00,WSW,255,19.0,25.0,55,0.00,,,-99.99,,2013-01-20 17:42:00,
2013-01-20 12:52:00,24.0,10.0,-100.00,West,275,13.0,19.0,55,0.00,,,-99.99,,2013-01-20 17:52:00,
2013-01-20 13:03:00,23.0,10.0,-100.00,WSW,250,12.0,19.0,55,0.00,,,-99.99,,2013-01-20 18:03:00,
2013-01-20 13:13:00,23.0,10.0,-100.00,WSW,250,12.0,22.0,57,0.00,,,-99.99,,2013-01-20 18:13:00,
2013-01-20 13:23:00,23.0,9.0,-100.00,West,260,12.0,22.0,54,0.00,,,-99.99,,2013-01-20 18:23:00,
2013-01-20 13:33:00,23.0,10.0,-100.00,West,275,12.0,18.0,56,0.00,,,-99.99,,2013-01-20 18:33:00,
2013-01-20 13:43:00,22.0,10.0,-100.00,West,275,12.0,21.0,58,0.00,,,-99.99,,2013-01-20 18:43:00,
2013-01-20 13:53:00,23.0,11.0,-100.00,West,270,11.0,16.0,58,0.00,,,-99.99,,2013-01-20 18:53:00,
2013-01-20 14:03:00,23.0,10.0,-100.00,West,260,11.0,21.0,57,0.00,,,-99.99,,2013-01-20 19:03:00,
2013-01-20 14:12:00,23.0,10.0,-100.00,West,275,9.0,19.0,56,0.00,,,-99.99,,2013-01-20 19:12:00,
2013-01-20 14:22:00,23.0,9.0,-100.00,WSW,255,9.0,16.0,54,0.00,,,-99.99,,2013-01-20 19:22:00,
2013-01-20 14:33:00,23.0,9.0,-100.00,West,265,12.0,21.0,55,0.00,,,-99.99,,2013-01-20 19:33:00,
2013-01-20 14:43:00,23.0,8.0,-100.00,West,275,12.0,21.0,52,0.00,,,-99.99,,2013-01-20 19:43:00,
2013-01-20 14:52:00,23.0,9.0,-100.00,West,265,12.0,21.0,53,0.00,,,-99.99,,2013-01-20 19:52:00,
2013-01-20 15:03:00,23.0,9.0,-100.00,West,265,9.0,17.0,54,0.00,,,-99.99,,2013-01-20 20:03:00,
2013-01-20 15:12:00,23.0,8.0,-100.00,WSW,255,7.0,16.0,52,0.00,,,-99.99,,2013-01-20 20:12:00,
2013-01-20 15:23:00,23.0,8.0,-100.00,WSW,250,9.0,12.0,53,0.00,,,-99.99,,2013-01-20 20:23:00,
2013-01-20 15:33:00,23.0,9.0,-100.00,West,270,6.0,12.0,53,0.00,,,-99.99,,2013-01-20 20:33:00,
2013-01-20 15:42:00,24.0,9.0,-100.00,WSW,250,7.0,11.0,53,0.00,,,-99.99,,2013-01-20 20:42:00,
2013-01-20 15:53:00,24.0,9.0,-100.00,WSW,250,7.0,12.0,53,0.00,,,-99.99,,2013-01-20 20:53:00,
2013-01-20 16:04:00,24.0,9.0,-100.00,West,275,7.0,14.0,51,0.00,,,-99.99,,2013-01-20 21:04:00,
2013-01-20 16:13:00,24.0,8.0,-100.00,West,260,9.0,15.0,51,0.00,,,-99.99,,2013-01-20 21:13:00,
2013-01-20 16:23:00,24.0,8.0,-100.00,West,270,4.0,11.0,51,0.00,,,-99.99,,2013-01-20 21:23:00,
2013-01-20 16:33:00,23.0,9.0,-100.00,West,275,7.0,11.0,52,0.00,,,-99.99,,2013-01-20 21:33:00,
2013-01-20 16:43:00,24.0,9.0,-100.00,WNW,295,5.0,12.0,52,0.00,,,-99.99,,2013-01-20 21:43:00,
2013-01-20 16:53:00,23.0,9.0,-100.00,WNW,300,6.0,10.0,54,0.00,,,-99.99,,2013-01-20 21:53:00,
2013-01-20 17:03:00,23.0,9.0,-100.00,West,270,2.0,6.0,53,0.00,,,-99.99,,2013-01-20 22:03:00,
2013-01-20 17:13:00,24.0,9.0,-100.00,WNW,285,4.0,7.0,53,0.00,,,-99.99,,2013-01-20 22:13:00,
2013-01-20 17:23:00,24.0,8.0,-100.00,West,270,7.0,12.0,50,0.00,,,-99.99,,2013-01-20 22:23:00,
2013-01-20 17:33:00,24.0,8.0,-100.00,West,265,9.0,12.0,50,0.00,,,-99.99,,2013-01-20 22:33:00,
2013-01-20 17:43:00,24.0,8.0,-100.00,West,265,6.0,12.0,50,0.00,,,-99.99,,2013-01-20 22:43:00,
2013-01-20 17:52:00,24.0,8.0,-100.00,WSW,255,7.0,11.0,50,0.00,,,-99.99,,2013-01-20 22:52:00,
2013-01-20 18:03:00,24.0,8.0,-100.00,West,270,7.0,12.0,50,0.00,,,-99.99,,2013-01-20 23:03:00,
2013-01-20 18:13:00,24.0,8.0,-100.00,WSW,255,9.0,12.0,50,0.00,,,-99.99,,2013-01-20 23:13:00,
2013-01-20 18:23:00,23.0,7.0,-100.00,WSW,245,9.0,14.0,49,0.00,,,-99.99,,2013-01-20 23:23:00,
2013-01-20 18:33:00,23.0,8.0,-100.00,SW,230,7.0,14.0,51,0.00,,,-99.99,,2013-01-20 23:33:00,
2013-01-20 18:43:00,23.0,8.0,-100.00,SW,235,7.0,16.0,51,0.00,,,-99.99,,2013-01-20 23:43:00,
2013-01-20 18:53:00,23.0,8.0,-100.00,West,260,6.0,13.0,51,0.00,,,-99.99,,2013-01-20 23:53:00,
2013-01-20 19:03:00,23.0,8.0,-100.00,WSW,245,6.0,11.0,51,0.00,,,-99.99,,2013-01-21 00:03:00,
2013-01-20 19:13:00,23.0,9.0,-100.00,SW,235,6.0,11.0,52,0.00,,,-99.99,,2013-01-21 00:13:00,
2013-01-20 19:23:00,23.0,9.0,-100.00,SW,225,5.0,11.0,54,0.00,,,-99.99,,2013-01-21 00:23:00,
2013-01-20 19:33:00,23.0,9.0,-100.00,SW,230,6.0,11.0,53,0.00,,,-99.99,,2013-01-21 00:33:00,
2013-01-20 19:43:00,23.0,9.0,-100.00,SW,235,5.0,11.0,52,0.00,,,-99.99,,2013-01-21 00:43:00,
2013-01-20 19:53:00,23.0,9.0,-100.00,WSW,250,7.0,12.0,53,0.00,,,-99.99,,2013-01-21 00:53:00,
2013-01-20 20:03:00,23.0,9.0,-100.00,WSW,250,6.0,12.0,52,0.00,,,-99.99,,2013-01-21 01:03:00,
2013-01-20 20:13:00,23.0,8.0,-100.00,WSW,245,9.0,14.0,52,0.00,,,-99.99,,2013-01-21 01:13:00,
2013-01-20 20:23:00,23.0,9.0,-100.00,WSW,245,9.0,12.0,53,0.00,,,-99.99,,2013-01-21 01:23:00,
2013-01-20 20:33:00,23.0,9.0,-100.00,SW,230,5.0,9.0,54,0.00,,,-99.99,,2013-01-21 01:33:00,
2013-01-20 20:43:00,23.0,9.0,-100.00,WSW,255,9.0,12.0,53,0.00,,,-99.99,,2013-01-21 01:43:00,
2013-01-20 20:53:00,23.0,9.0,-100.00,WSW,240,9.0,13.0,53,0.00,,,-99.99,,2013-01-21 01:53:00,
2013-01-20 21:03:00,23.0,9.0,-100.00,SW,220,8.0,14.0,54,0.00,,,-99.99,,2013-01-21 02:03:00,
2013-01-20 21:12:00,23.0,9.0,-100.00,SW,235,7.0,14.0,53,0.00,,,-99.99,,2013-01-21 02:12:00,
2013-01-20 21:23:00,23.0,8.0,-100.00,WSW,240,9.0,13.0,53,0.00,,,-99.99,,2013-01-21 02:23:00,
2013-01-20 21:33:00,23.0,9.0,-100.00,SW,230,9.0,12.0,53,0.00,,,-99.99,,2013-01-21 02:33:00,
2013-01-20 21:43:00,23.0,9.0,-100.00,SW,225,9.0,13.0,53,0.00,,,-99.99,,2013-01-21 02:43:00,
2013-01-20 21:53:00,23.0,8.0,-100.00,West,265,7.0,12.0,53,0.00,,,-99.99,,2013-01-21 02:53:00,
2013-01-20 22:03:00,23.0,8.0,-100.00,West,265,10.0,15.0,51,0.00,,,-99.99,,2013-01-21 03:03:00,
2013-01-20 22:13:00,23.0,8.0,-100.00,West,265,7.0,14.0,53,0.00,,,-99.99,,2013-01-21 03:13:00,
2013-01-20 22:23:00,23.0,8.0,-100.00,West,270,6.0,10.0,52,0.00,,,-99.99,,2013-01-21 03:23:00,
2013-01-20 22:33:00,23.0,8.0,-100.00,SW,230,7.0,12.0,51,0.00,,,-99.99,,2013-01-21 03:33:00,
2013-01-20 22:43:00,23.0,8.0,-100.00,West,260,7.0,11.0,51,0.00,,,-99.99,,2013-01-21 03:43:00,
2013-01-20 22:53:00,22.0,7.0,-100.00,West,275,7.0,11.0,50,0.00,,,-99.99,,2013-01-21 03:53:00,
2013-01-20 23:03:00,22.0,6.0,-100.00,West,260,8.0,13.0,49,0.00,,,-99.99,,2013-01-21 04:03:00,
2013-01-20 23:12:00,22.0,6.0,-100.00,WSW,255,8.0,13.0,49,0.00,,,-99.99,,2013-01-21 04:12:00,
2013-01-20 23:23:00,22.0,7.0,-100.00,SW,235,6.0,14.0,50,0.00,,,-99.99,,2013-01-21 04:23:00,
2013-01-20 23:33:00,22.0,7.0,-100.00,WSW,245,7.0,14.0,51,0.00,,,-99.99,,2013-01-21 04:33:00,
2013-01-20 23:43:00,22.0,7.0,-100.00,SW,230,8.0,12.0,51,0.00,,,-99.99,,2013-01-21 04:43:00,
2013-01-20 23:53:00,22.0,7.0,-100.00,WSW,240,6.0,10.0,51,0.00,,,-99.99,,2013-01-21 04:53:00,